Simultaneous Nadir Overpasses (SNOs) Predictions

Prediction of SNOs between NOAA-19 and NPP Satellite Orbit:

Table of predicted SNOs for the next 14.0 days since TLE Epoch: 1/26/2019
Index Date (NOAA-19) Time (NOAA-19) Lat,Lon (NOAA-19) SZA (NOAA-19 ) Date (NPP) Time (NPP) Lat,Lon (NPP) SZA (NPP ) Distance(km) Time Diff (sec)
1 02/01/2019 20:58:03 -80.26, 3.71 80.03 02/01/2019 20:59:09 -80.26, 3.69 80.06 0.41 66
2 02/01/2019 21:48:59 80.25, 170.93 99.97 02/01/2019 21:49:54 80.25, 171.04 99.93 2.16 55
3 02/01/2019 22:40:04 -80.26, -21.80 80.05 02/01/2019 22:40:39 -80.26, -21.72 80.07 1.54 35
4 02/01/2019 23:30:59 80.27, 145.74 99.93 02/01/2019 23:31:24 80.26, 145.63 99.92 2.78 25
5 02/02/2019 00:22:04 -80.28, -46.99 80.09 02/02/2019 00:22:09 -80.26, -47.14 80.08 3.11 5
6 02/02/2019 01:13:00 80.27, 120.22 99.91 02/02/2019 01:12:54 80.26, 120.21 99.91 1.35 6
7 02/02/2019 02:04:05 -80.28, -72.50 80.11 02/02/2019 02:03:39 -80.27, -72.55 80.10 1.28 26
8 02/02/2019 02:55:01 80.27, 94.70 99.89 02/02/2019 02:54:24 80.26, 94.80 99.89 2.04 37
9 02/02/2019 03:46:06 -80.27, -98.02 80.13 02/02/2019 03:45:09 -80.27, -97.96 80.11 1.11 57




NCC Satellite Simultaneous Nadir Overpasses (SNOs) Prediction Service
